Flag for Poland Weather past 2 weeks in Opole, Poland

Now
43 °F

Partly sunny.


Feels Like: 33 °F
Forecast: 34 / 40 °F
Wind: 26 mph from Northwest

Location: Wroclaw Ii

Current Time: Apr 1, 2015 at 12:51:43 PM

Latest Report: Apr 1, 2015 at 12:00 PM


Visibility: N/A

Pressure: 29.65 "Hg

Humidity: 71%

Dew point: 34 °F

Location of OpoleLocation

Historic Weather in Opole — Graph

°F

Opole temperature yesterday

Maximum temperature yesterday: 55 °F (at 4:30 PM)
Minimum temperature yesterday: 37 °F (at 4:00 AM)
Average temperature yesterday: 44 °F

Past Weeks' High & Low Weather Summary

 TemperatureHumidityPressure
High66 °F (Mar 25, 2:30 PM)94% (Mar 26, 8:30 AM)30.54 "Hg (Mar 26, 8:30 AM)
Low27 °F (Mar 23, 1:00 AM)22% (Mar 18, 12:30 PM)29.18 "Hg (Mar 30, 3:00 AM)
Average45 °F64%29.93 "Hg
* Reported Mar 17 10:00 AM — Apr 1 11:30 AM, Opole, Weather by CustomWeather, © 2015

Note: Actual official high and low records may vary slightly from our data, if they occured in-between our weather recording intervals... More about our weather records

Advertising

Opole weather history for previous 24 hours

 ConditionsComfort  
Time TempWeatherWind HumidityBarometerVisibility
11:30 AM
Wed, Apr 1
41 °FSprinkles. Broken clouds.26 mph81%29.62 "HgN/A
11:00 AM41 °FBroken clouds.26 mph76%29.62 "HgN/A
10:30 AM41 °FScattered clouds.28 mph70%29.62 "HgN/A
10:00 AM41 °FScattered clouds.29 mph70%29.59 "HgN/A
9:30 AM41 °FScattered clouds.25 mph70%29.59 "HgN/A
9:00 AM41 °FScattered clouds.30 mph70%29.56 "HgN/A
8:30 AM39 °FPassing clouds.23 mph75%29.56 "HgN/A
8:00 AM41 °FPassing clouds.23 mph66%29.53 "HgN/A
7:30 AM41 °FScattered clouds.22 mph66%29.53 "HgN/A
7:00 AM41 °FPartly cloudy.22 mph61%29.50 "HgN/A
6:30 AM41 °FPassing clouds.24 mph61%29.50 "HgN/A
6:00 AM41 °FPartly cloudy.22 mph61%29.50 "HgN/A
5:30 AM41 °FPartly cloudy.23 mph61%29.47 "HgN/A
5:00 AM41 °FPassing clouds.25 mph61%29.47 "HgN/A
4:30 AM41 °FPassing clouds.23 mph61%29.45 "HgN/A
4:00 AM43 °FPassing clouds.24 mph57%29.45 "HgN/A
3:30 AM43 °FPassing clouds.26 mph61%29.45 "HgN/A
3:00 AM43 °FPassing clouds.25 mph61%29.45 "HgN/A
2:30 AM41 °FPassing clouds.30 mph66%29.45 "HgN/A
2:00 AM43 °FPassing clouds.28 mph66%29.42 "HgN/A
1:30 AM45 °FPassing clouds.28 mph57%29.42 "HgN/A
1:00 AM45 °FClear.24 mph53%29.42 "Hg10 mi
12:30 AM45 °FPassing clouds.25 mph49%29.42 "HgN/A
12:00 AM45 °FClear.26 mph49%29.42 "Hg10 mi
11:30 PM
Tue, Mar 31
45 °FClear.29 mph49%29.42 "Hg10 mi
11:00 PM45 °FClear.35 mph49%29.39 "Hg10 mi
10:30 PM46 °FPassing clouds.29 mph53%29.36 "HgN/A
10:00 PM46 °FPassing clouds.30 mph57%29.36 "HgN/A
9:30 PM48 °FSprinkles. Passing clouds.33 mph58%29.33 "HgN/A
9:00 PM48 °FPassing clouds.29 mph62%29.33 "HgN/A
8:30 PM46 °FPassing clouds.25 mph66%29.33 "HgN/A
8:00 PM48 °FPartly sunny.33 mph58%29.30 "HgN/A
7:30 PM48 °FScattered clouds.28 mph62%29.27 "HgN/A
7:00 PM46 °FPassing clouds.25 mph71%29.27 "HgN/A
6:30 PM45 °FSprinkles. Partly sunny.29 mph81%29.27 "HgN/A
6:00 PM52 °FScattered clouds.20 mph67%29.21 "HgN/A
5:30 PM52 °FPassing clouds.22 mph67%29.18 "HgN/A
5:00 PM55 °FSprinkles. Partly sunny.26 mph51%29.18 "HgN/A
4:30 PM55 °FPassing clouds.29 mph55%29.18 "HgN/A
4:00 PM54 °FPassing clouds.25 mph63%29.18 "HgN/A
3:30 PM54 °FPassing clouds.20 mph63%29.18 "HgN/A
3:00 PM52 °FScattered clouds.20 mph67%29.21 "HgN/A
2:30 PM50 °FScattered clouds.18 mph76%29.21 "HgN/A
2:00 PM46 °FScattered clouds.15 mph87%29.21 "HgN/A
1:30 PM46 °FSprinkles. Broken clouds.21 mph82%29.24 "Hg5 mi
1:00 PM46 °FSprinkles. Broken clouds.9 mph82%29.18 "HgN/A
12:30 PM45 °FSprinkles. Broken clouds.7 mph81%29.18 "HgN/A
12:00 PM41 °FSprinkles. Partly sunny.14 mph87%29.18 "HgN/A
Weather by CustomWeather, © 2015

See weather overviewHow to use our weather pages